Regional Weather Roundup
Issued by NWS

Home | Current Version | Previous Version | Graphics & Text | Print | Product List | Glossary On
Versions: 1 2 3 4 5 6 7 8 9 10 11 12 13 14 15 16 17 18 19 20 21 22 23 24 25 26 27 28 29 30 31 32 33 34 35 36 37 38 39 40 41 42 43 44 45 46 47 48 49 50
356
ASUS44 KLIX 260110
RWRLA
LOUISIANA WEATHER ROUNDUP
NATIONAL WEATHER SERVICE NEW ORLEANS LA
800 PM CDT SAT OCT 25 2014

NOTE: "FAIR" INDICATES FEW OR NO CLOUDS BELOW 12,000 FEET WITH NO
      SIGNIFICANT WEATHER AND/OR OBSTRUCTIONS TO VISIBILITY.
      SKY/WX - SKY CONDITION AND SIGNIFICANT WEATHER.
      TMP - AIR TEMPERATURE.    DP   - DEWPOINT TEMPERATURE.
      RH  - RELATIVE HUMIDITY.  PRES - PRESSURE.
      HX  - HEAT INDEX.         WCI  - WIND CHILL INDEX.

*  THESE STATIONS ARE NOT NWS OR FAA STATIONS AND ARE NOT UNDER
   NWS QUALITY CONTROL.

LAZ040-048-061>063-065-066-069-260200-
SOUTHEAST LOUISIANA

CITY           SKY/WX    TMP DP  RH WIND       PRES   REMARKS
N.O. AUDUBON   NOT AVBL
N.O. INTL ARPT CLEAR     69  57  65 W3        30.08R
N.O. LAKEFRONT CLEAR     74  65  73 W7        30.08R
N.O. DOWNTOWN* FAIR      75  54  46 CALM      30.09R
SLIDELL        CLEAR     63  59  87 CALM      30.07R
BATON ROUGE    CLEAR     63  56  78 CALM      30.09R
BOOTHVILLE     CLEAR     66  56  70 CALM      30.08S
BELLE CHASSE   CLEAR     61  57  87 SW3       30.08R
BOGALUSA*        N/A     65  58  80 CALM      30.09R
NEW ROADS*     FAIR      63  58  82 CALM      30.10R
GONZALES*      FAIR      62  60  94 CALM      30.09R
HAMMOND*       CLEAR     64  59  82 CALM      30.10R
HOUMA*         CLEAR     63  57  81 CALM      30.09R
PORT FOURCHON* CLEAR     72  59  64 CALM      30.12R

$$

LAZ041-044-053-054-260200-
SOUTHWEST LOUISIANA

CITY           SKY/WX    TMP DP  RH WIND       PRES   REMARKS
LAKE CHARLES   CLEAR     64  58  80 SW5       30.10R
LAFAYETTE      CLEAR     65  61  87 CALM      30.09S
PATTERSON      CLEAR     63  57  82 CALM      30.12R
SALT POINT       N/A     69  64  84 CALM      30.09R
NEW IBERIA     CLEAR     65  56  72 CALM      30.10R
CHENAULT AIRPK NOT AVBL

$$

LAZ027-028-260200-
CENTRAL LOUISIANA

CITY           SKY/WX    TMP DP  RH WIND       PRES   REMARKS
FORT POLK      CLEAR     64  57  80 S1        30.10R
ALEXANDRIA INT CLEAR     64  58  80 CALM      30.08R
ALEXANDRIA     CLEAR     59  58  96 CALM      30.10R

$$

LAZ001-002-260200-
NORTHWEST LOUISIANA

CITY           SKY/WX    TMP DP  RH WIND       PRES   REMARKS
SHREVEPORT     CLEAR     73  65  75 CALM      30.07R
BARKSDALE AFB  CLEAR     70  65  83 SE5       30.07R
DTN SHREVEPORT CLEAR     71  63  75 CALM      30.07R

$$

LAZ014-016-260200-
NORTHEAST LOUISIANA

CITY           SKY/WX    TMP DP  RH WIND       PRES   REMARKS
MONROE         CLEAR     66  63  90 CALM      30.09R
TALLULAH       CLEAR     63  59  87 W3        30.07R

$$




USA.gov is the U.S. government's official web portal to all federal, state and local government web resources and services.